User: anonymous   Login
Location: Unspecified
(0.0000°N, 0.0000°E)
Time: 00:12:19
(UTC+00:00)
Language:

Ajisai (EGP) Rocket - Orbit

View from above orbital plane
View from above orbital plane
View from above satellite
View from above satellite

Ground track
Ground track

The orbit data is extracted from the following two-line orbital elements,

1 16910U 86061C   18265.50814667 -.00000063 +00000-0 +26166-3 0  9991
2 16910 050.0030 271.6733 0071954 077.5517 087.5857 12.32577809446079
Epoch (UTC): 22 September 2018 12:11:43
Eccentricity: 0.0071954
inclination: 50.0030°
perigee height: 1481 km
apogee height: 1595 km
right ascension of ascending node: 271.6733°
argument of perigee: 77.5517°
revolutions per day: 12.32577809
mean anomaly at epoch: 87.5857°
orbit number at epoch: 44607

The dashed part of the orbit path shows where the satellite is in the earth's shadow,  

DLR